Startpagina
METAR-TAF:

METAR-TAF

Vliegvelden :

Rome State Airport

Rome, Oregon, Verenigde Staten

breedte: 42-35-26N, lengte: 117-51-52W, hoogte: 1234 m

Actueel weer

Dit bericht is 47 minuten geleden gemaakt, om 17:52 UTC
Wind 3 kt uit het westnoordwesten
Temperatuur 7°C
Vochtigheid 22%
Druk 1021 hPa

METAR: KREO 161752Z AUTO 29003KT 07/M13 A3016 RMK AO1 SLP230 T00671128 10067 21078 50002

Tijdstip: 11:39 (18:39 UTC)


TAF: ontbreekt

Waarnemingen en weersverwachtingen van meer dan 4000 vliegvelden (METAR en TAF).

De beschikbare stations zijn de gele en rode punten op de kaart.

Ga met uw muis naar het station om de naam te zien.

Klik dan om waarnemingen en weersverwachtingen te zien.

kaart wijzigen: klik op de groene knoppen met een zwart kruis om in te zoomen, op de groene knop met een streepje om uit te zoomen of op de groene pijlen voor aangrenzende kaarten.


METAR-TAF: